"TOA5","AWS1","CR1000","7964","CR1000.Std.14","CPU:AWS1_114.CR1","64363","TBL110"
"TIMESTAMP","RECORD","Wind_spd_WVc(1)","Wind_spd_WVc(2)","Air_Temp_Avg","Humidity_Avg","SW_upper_Wm2_Avg","Rain_Tot","Press_Avg","Issui_Tot","Depth_cm","SR50A_Raw","Quality","Ground_Temp_Avg(1)","Ground_Temp_Avg(2)","SW_lower_Wm2_Avg","Albedo_Avg","SWC_per(1)","SWC_per(2)","Period(1)","Period(2)"
"TS","RN","","","","","","","","","","","","","","","","","","",""
"","","WVc","WVc","Avg","Avg","Avg","Tot","Avg","Tot","Smp","Smp","Smp","Avg","Avg","Avg","Avg","Smp","Smp","Smp","Smp"
"2015-12-28 00:00:00",215485,0.684,201,-6.506,75.66,0,0,867.6009,0,2.662,3.192,191,2.298,3.256,0.2275448,0,51.71,59.73,33.72,35.62
"2015-12-28 00:10:00",215486,0.925,168.6,-6.576,75.11,0,0,867.585,0,2.568,3.193,190,2.288,3.205,0.2275355,0,51.66,59.67,33.7,35.6
"2015-12-28 00:20:00",215487,0.908,186.7,-6.52,73.13,0,0,867.5532,0,2.589,3.192,192,2.284,3.232,0.2692465,0,51.71,59.67,33.72,35.6
"2015-12-28 00:30:00",215488,0.968,227.3,-6.509,73.22,0,0,867.5779,0,2.517,3.193,182,2.286,3.237,0.2275345,0,51.71,59.67,33.72,35.6
"2015-12-28 00:40:00",215489,0.985,148.1,-6.459,71.64,0,0,867.5187,0,2.59,3.192,190,2.285,3.255,0.2692471,0,51.66,59.73,33.7,35.62
"2015-12-28 00:50:00",215490,1.204,192.1,-6.353,68.37,0,0,867.3818,0,2.563,3.191,190,2.283,3.229,0.4816088,0,51.66,59.67,33.7,35.6
"2015-12-28 01:00:00",215491,0.487,212.1,-6.296,67.94,0,0,867.523,0,2.516,3.192,190,2.281,3.213,0.3299182,0,51.66,59.67,33.7,35.6
"2015-12-28 01:10:00",215492,1.025,207.8,-6.373,69.68,0,0,867.5314,0,2.568,3.192,190,2.28,3.227,0.2275285,0,51.66,59.67,33.7,35.6
"2015-12-28 01:20:00",215493,0.786,214.7,-6.364,70.14,0,0,867.5925,0,2.564,3.192,190,2.284,3.264,0.2995831,0,51.66,59.67,33.7,35.6
"2015-12-28 01:30:00",215494,0.606,256.5,-6.398,70.67,0,0,867.6115,0,2.613,3.191,191,2.286,3.249,0.2351175,0,51.71,59.67,33.72,35.6
"2015-12-28 01:40:00",215495,0.542,204.1,-6.348,70.91,0,0,867.5956,0,2.563,3.192,192,2.288,3.257,0.2768334,0,51.66,59.67,33.7,35.6
"2015-12-28 01:50:00",215496,0.736,235,-6.403,72.3,0,0,867.619,0,2.388,3.193,182,2.295,3.266,0.2199516,0,51.66,59.67,33.7,35.6
"2015-12-28 02:00:00",215497,1.01,296.8,-6.257,67.28,0,0,867.7451,0,2.488,3.192,191,2.292,3.268,0.3716413,0,51.66,59.67,33.7,35.6
"2015-12-28 02:10:00",215498,0.928,275.9,-6.323,68.7,0,0,867.637,0,2.486,3.192,190,2.287,3.221,0.2578716,0,51.71,59.67,33.72,35.6
"2015-12-28 02:20:00",215499,1.106,206.6,-6.378,70.81,0,0,867.6031,0,2.485,3.193,192,2.296,3.208,0.2085759,0,51.71,59.67,33.72,35.6
"2015-12-28 02:30:00",215500,1.01,235.9,-6.422,69.85,0,0,867.6084,0,2.304,3.195,187,2.323,3.218,0.08343543,0,51.66,59.67,33.7,35.6
"2015-12-28 02:40:00",215501,0.711,243.4,-6.413,68.76,0,0,867.6972,0,2.179,3.196,192,2.35,3.226,0.1061932,0,51.66,59.67,33.7,35.6
"2015-12-28 02:50:00",215502,0.85,350.8,-6.373,67.62,0,0,867.6541,0,2.28,3.195,192,2.345,3.222,0.3337529,0,51.66,59.67,33.7,35.6
"2015-12-28 03:00:00",215503,1.018,292.9,-6.432,69.86,0,0,867.6205,0,2.549,3.192,191,2.348,3.217,0.2541026,0,51.66,59.67,33.7,35.6
"2015-12-28 03:10:00",215504,0.96,261.8,-6.29,67.26,0,0,867.6186,0,2.296,3.194,187,2.359,3.226,0.4475349,0,51.71,59.73,33.72,35.62
"2015-12-28 03:20:00",215505,0.719,251.1,-6.443,69.67,0,0,867.5393,0,2.347,3.195,187,2.365,3.232,0.07585578,0,51.66,59.67,33.7,35.6
"2015-12-28 03:30:00",215506,0.847,280.8,-6.47,69.2,0,0,867.6359,0,2.436,3.193,187,2.373,3.239,0.2048169,0,51.66,59.67,33.7,35.6
"2015-12-28 03:40:00",215507,0.944,208.3,-6.447,69.74,0,0,867.6315,0,2.306,3.195,187,2.387,3.263,0.1858599,0,51.66,59.67,33.7,35.6
"2015-12-28 03:50:00",215508,1.049,215.1,-6.496,69.91,0,0,867.6619,0,2.35,3.194,193,2.399,3.283,0.2731161,0,51.66,59.67,33.7,35.6
"2015-12-28 04:00:00",215509,0.887,209.1,-6.404,70.1,0,0,867.6531,0,2.276,3.195,187,2.401,3.286,0.3489825,0,51.66,59.67,33.7,35.6
"2015-12-28 04:10:00",215510,1.062,228.7,-6.359,70.48,0,0,867.5984,0,2.252,3.195,179,2.404,3.281,0.2845005,0,51.66,59.67,33.7,35.6
"2015-12-28 04:20:00",215511,0.802,261.1,-6.301,68.18,0,0,867.4553,0,2.325,3.194,187,2.401,3.285,0.2275972,0,51.66,59.67,33.7,35.6
"2015-12-28 04:30:00",215512,0.818,201.5,-6.364,68.8,0,0,867.4174,0,2.447,3.193,174,2.403,3.285,0.1555255,0,51.66,59.61,33.7,35.59
"2015-12-28 04:40:00",215513,1.259,170,-6.401,69.64,0,0,867.3877,0,2.25,3.195,174,2.405,3.284,0.3338145,0,51.66,59.67,33.7,35.6
"2015-12-28 04:50:00",215514,0.885,246.4,-6.371,71.01,0,0,867.4927,0,2.275,3.194,170,2.402,3.273,0.3755373,0,51.66,59.67,33.7,35.6
"2015-12-28 05:00:00",215515,0.975,237.2,-6.29,70.57,0,0,867.4367,0,2.328,3.194,170,2.395,3.269,0.3679407,0,51.66,59.61,33.7,35.59
"2015-12-28 05:10:00",215516,0.962,222.1,-6.29,70.4,0,0,867.4352,0,2.324,3.193,170,2.398,3.273,0.3072527,0,51.66,59.61,33.7,35.59
"2015-12-28 05:20:00",215517,1.278,178.9,-6.213,68.47,0,0,867.4703,0,2.227,3.194,170,2.394,3.26,0.390698,0,51.6,59.67,33.69,35.6
"2015-12-28 05:30:00",215518,1.139,169.3,-6.202,68.81,0,0,867.4606,0,2.254,3.194,170,2.397,3.262,0.280699,0,51.6,59.61,33.69,35.59
"2015-12-28 05:40:00",215519,0.701,169.2,-6.228,69.94,0,0,867.3849,0,2.31,3.194,170,2.388,3.253,0.3148266,0,51.6,59.61,33.69,35.5
"2015-12-28 05:40:00",215519,0.701,169.2,-6.228,69.94,0,0,867.3849,0,2.31,3.194,170,2.388,3.253,0.3148266,0,51.6,59.61,33.69,35.59
"2015-12-28 05:50:00",215520,0.927,231.2,-6.3,70.45,0,0,867.4989,0,2.287,3.194,170,2.38,3.248,0.2275792,0,51.6,59.67,33.69,35.6
"2015-12-28 06:00:00",215521,0.769,283.6,-6.231,69.64,0,0,867.582,0,2.385,3.193,175,2.377,3.244,0.2275765,0,51.66,59.61,33.7,35.59
"2015-12-28 06:10:00",215522,0.989,212.2,-6.192,69.26,0,0,867.6,0,2.243,3.194,170,2.376,3.242,0.390674,0,51.66,59.67,33.7,35.6
"2015-12-28 06:20:00",215523,0.982,244.4,-6.274,70.5,0,0,867.4095,0,2.195,3.195,170,2.365,3.237,0.1896385,0,51.66,59.61,33.7,35.59
"2015-12-28 06:30:00",215524,0.722,202.7,-6.341,71.72,0,0,867.4267,0,2.101,3.197,170,2.366,3.235,0.1024046,0,51.66,59.67,33.7,35.6
"2015-12-28 06:40:00",215525,0.648,223,-6.46,72.77,0,0,867.3737,0,2.144,3.196,171,2.368,3.236,0.02275729,0,51.6,59.61,33.69,35.59
"2015-12-28 06:50:00",215526,0.903,229.2,-6.558,72.11,0,0,867.3645,0,2.251,3.196,171,2.373,3.239,0.2996306,0,51.6,59.67,33.69,35.6
"2015-12-28 07:00:00",215527,0.933,207.4,-6.546,71.91,0,0,867.1376,0,2.278,3.196,171,2.374,3.241,1.399516,0,51.66,59.67,33.7,35.6
"2015-12-28 07:10:00",215528,0.92,196.4,-6.518,70.94,0.1416064,0,867.0544,0,2.133,3.198,171,2.379,3.243,3.121356,3.396,51.6,59.67,33.69,35.6
"2015-12-28 07:20:00",215529,1.253,256.3,-6.47,71.36,1.3964,0,867.2211,0,2.052,3.197,170,2.377,3.243,7.058144,6.484,51.6,59.61,33.69,35.59
"2015-12-28 07:30:00",215530,0.928,185.5,-6.391,71.92,2.855778,0,867.4131,0,2.147,3.196,171,2.386,3.246,10.55892,3.758,51.6,59.67,33.69,35.6
"2015-12-28 07:40:00",215531,0.547,241.3,-6.221,71.75,6.840681,0,867.5321,0,2.04,3.195,171,2.39,3.247,20.34091,2.978,51.6,59.67,33.69,35.6
"2015-12-28 07:50:00",215532,0.717,171.1,-6.097,71.59,7.564593,0,867.5154,0,2.136,3.194,171,2.384,3.247,21.72941,2.876,51.6,59.61,33.69,35.59
"2015-12-28 08:00:00",215533,0.891,218.9,-6.021,71.38,12.88327,0,867.2974,0,2.281,3.192,171,2.382,3.246,35.5286,2.746,51.6,59.61,33.69,35.59
"2015-12-28 08:10:00",215534,0.911,149.5,-5.876,68.99,10.84128,0,867.3557,0,2.09,3.193,171,2.371,3.233,30.01649,2.733,51.6,59.61,33.69,35.59
"2015-12-28 08:20:00",215535,1.575,167.4,-5.652,67.14,17.81439,0,867.2615,0,1.996,3.192,180,2.352,3.195,51.90483,2.883,51.6,59.61,33.69,35.59
"2015-12-28 08:30:00",215536,1.123,157.6,-5.331,65.16,25.62858,0,867.3571,0,2.044,3.189,170,2.334,3.181,67.08253,2.654,51.66,59.61,33.7,35.59
"2015-12-28 08:40:00",215537,1.083,243.9,-5.054,64.75,32.11761,0,867.5792,0,2.043,3.187,170,2.298,3.219,91.43106,2.827,51.66,59.61,33.7,35.59
"2015-12-28 08:50:00",215538,0.559,303.6,-4.738,62.6,24.43979,0,867.6376,0,1.847,3.189,170,2.282,3.231,68.41853,2.778,51.66,59.61,33.7,35.59
"2015-12-28 09:00:00",215539,0.895,277.6,-4.751,63.09,31.87686,0,867.5906,0,2.022,3.188,174,2.279,3.229,86.45719,2.71,51.66,59.61,33.7,35.59
"2015-12-28 09:10:00",215540,0.54,283.4,-4.622,61.96,34.33095,0,867.5925,0,1.868,3.187,171,2.248,3.196,88.92941,2.589,51.66,59.61,33.7,35.59
"2015-12-28 09:20:00",215541,0.972,296.7,-4.57,61.09,36.3092,0,867.7759,0,2.487,3.18,174,2.24,3.197,86.07386,2.367,51.6,59.61,33.69,35.59
"2015-12-28 09:30:00",215542,1.093,300.7,-4.094,60.75,41.48499,0,867.8096,0,1.942,3.186,179,2.298,3.227,97.32512,2.372,51.6,59.61,33.69,35.59
"2015-12-28 09:40:00",215543,0.838,145.7,-4.333,60.21,36.60811,0,867.7296,0,2.463,3.181,174,2.296,3.229,84.81487,2.315,51.66,59.61,33.7,35.59
"2015-12-28 09:50:00",215544,1.05,207.1,-3.942,62.95,62.72305,0,867.5988,0,2.033,3.181,170,2.287,3.231,95.14844,1.555,51.6,59.61,33.69,35.59
"2015-12-28 10:00:00",215545,0.977,215.6,-3.715,61.42,41.51252,0,867.5356,0,1.763,3.185,179,2.333,3.231,106.9458,2.575,51.6,59.61,33.69,35.59
"2015-12-28 10:10:00",215546,1.272,216.4,-3.682,62.87,49.46499,0,867.3839,0,1.73,3.181,179,2.33,3.217,121.701,2.467,51.6,59.61,33.69,35.59
"2015-12-28 10:20:00",215547,1.185,189.3,-3.267,62.35,58.50297,0,867.4492,0,2.082,3.18,174,2.326,3.188,132.4668,2.275,51.66,59.61,33.7,35.59
"2015-12-28 10:30:00",215548,1.279,153.6,-3.341,64.29,55.64667,0,867.3268,0,1.563,3.183,179,2.32,3.185,134.7816,2.457,51.6,59.61,33.69,35.59
"2015-12-28 10:40:00",215549,1.217,177.2,-3.503,61.95,48.72146,0,867.3586,0,1.637,3.188,180,2.298,3.176,113.925,2.343,51.6,59.61,33.69,35.59
"2015-12-28 10:50:00",215550,0.841,212.3,-3.835,63.27,83.4568,0,867.1805,0,1.869,3.182,174,2.271,3.149,150.4721,1.942,51.6,59.61,33.69,35.59
"2015-12-28 11:00:00",215551,0.94,165.6,-3.543,61.86,60.55519,0,866.9965,0,1.756,3.185,176,2.252,3.175,131.5322,2.171,51.66,59.61,33.7,35.59
"2015-12-28 11:10:00",215552,0.661,139.9,-3.492,61.5,68.26275,0,866.9937,0,1.632,3.184,177,2.242,3.189,162.0437,2.364,51.6,59.61,33.69,35.59
"2015-12-28 11:20:00",215553,0.499,117.8,-2.995,60.46,93.88027,0,866.9909,0,1.504,3.182,179,2.248,3.154,183.3418,2.033,51.6,59.61,33.69,35.59
"2015-12-28 11:30:00",215554,0.754,224.1,-3.081,59.95,112.2758,0,866.8664,0,1.753,3.18,171,2.298,3.141,196.8549,1.812,51.6,59.61,33.69,35.5
"2015-12-28 11:30:00",215554,0.754,224.1,-3.081,59.95,112.2758,0,866.8664,0,1.753,3.18,171,2.298,3.141,196.8549,1.812,51.6,59.61,33.69,35.59
"2015-12-28 11:40:00",215555,0.812,188.6,-3.251,60.58,74.6027,0,866.74,0,2.052,3.177,171,2.291,3.14,135.3558,1.911,51.66,59.61,33.7,35.59
"2015-12-28 11:50:00",215556,0.434,301.2,-3.318,62.07,72.39309,0,866.6936,0,1.953,3.179,176,2.284,3.176,140.2952,1.987,51.6,59.61,33.69,35.59
"2015-12-28 12:00:00",215557,0.833,158.8,-2.981,60.08,84.84849,0,866.4773,0,1.604,3.181,171,2.274,3.182,179.2877,2.106,51.6,59.61,33.69,35.59
"2015-12-28 12:10:00",215558,0.681,265.2,-3.077,60.51,81.56456,0,866.3988,0,1.573,3.183,176,2.264,3.187,164.6155,2.128,51.6,59.61,33.69,35.59
"2015-12-28 12:20:00",215559,0.947,183,-3.025,62.01,96.47598,0,866.1622,0.5,1.69,3.182,171,2.216,3.184,154.0701,1.843,51.6,59.56,33.69,35.58
"2015-12-28 12:30:00",215560,1.055,191.7,-3.487,63.76,46.46339,0,866.1456,0,1.407,3.188,170,2.205,3.135,98.61138,2.12,51.6,59.56,33.69,35.58
"2015-12-28 12:40:00",215561,0.566,296.1,-3.707,63.03,55.5168,0,866.152,0,1.559,3.185,171,2.224,3.093,101.8998,1.879,51.6,59.56,33.69,35.58
"2015-12-28 12:50:00",215562,0.681,162.9,-3.195,63.03,101.0091,0,866.0735,0,1.902,3.178,176,2.215,3.074,139.1418,1.426,51.6,59.56,33.69,35.58
"2015-12-28 13:00:00",215563,0.452,344.8,-2.741,62.66,120.1609,0,865.8945,0,1.404,3.182,171,2.186,3.131,139.5351,1.176,51.55,59.56,33.68,35.58
"2015-12-28 13:10:00",215564,0.88,341.9,-2.955,61.1,78.31493,0,865.8903,0,2.101,3.175,170,2.169,3.139,110.3781,1.51,51.55,59.56,33.68,35.58
"2015-12-28 13:20:00",215565,0.629,160.6,-2.35,62.88,67.5695,0,865.7554,0,1.25,3.18,172,2.151,3.163,154.4391,2.306,51.55,59.56,33.68,35.58
"2015-12-28 13:30:00",215566,1.018,194.3,-2.786,61.99,83.88018,0,865.8818,0,2.055,3.179,170,2.149,3.169,148.8154,1.889,51.6,59.56,33.69,35.58
"2015-12-28 13:40:00",215567,1.078,155.5,-2.727,66.16,87.93624,0,865.7638,0,1.499,3.177,171,2.154,3.151,162.3896,1.89,51.55,59.56,33.68,35.58
"2015-12-28 13:50:00",215568,1.005,76.24,-2.363,61.29,94.49589,0,865.6669,0,1.674,3.177,171,2.204,3.17,170.3324,1.857,51.55,59.56,33.68,35.58
"2015-12-28 14:00:00",215569,1.096,95.9,-2.59,61.69,74.53789,0,865.4984,0,1.802,3.178,171,2.218,3.171,158.8918,2.135,51.6,59.56,33.69,35.58
"2015-12-28 14:10:00",215570,0.802,239.7,-2.677,61.62,68.01755,0,865.4058,0,1.628,3.18,171,2.224,3.159,135.5937,1.995,51.55,59.56,33.68,35.58
"2015-12-28 14:20:00",215571,0.743,328.2,-2.918,61.71,49.25043,0,865.7154,0,1.73,3.181,170,2.194,3.166,92.85521,1.921,51.6,59.56,33.69,35.58
"2015-12-28 14:30:00",215572,0.575,162.8,-3.219,63.46,33.65898,0,865.8903,0,1.557,3.183,171,2.161,3.126,74.60855,2.221,51.55,59.56,33.68,35.58
"2015-12-28 14:40:00",215573,0.598,163.8,-2.924,63.2,40.2147,0,865.8903,0,1.407,3.184,170,2.156,3.106,88.84586,2.21,51.6,59.56,33.69,35.58
"2015-12-28 14:50:00",215574,0.348,171.8,-3.135,63.42,31.93751,0,865.8903,0,1.456,3.183,172,2.182,3.084,69.98152,2.189,51.55,59.56,33.68,35.58
"2015-12-28 15:00:00",215575,0.485,108.3,-3.071,64.61,27.11112,0,865.825,0,1.582,3.183,171,2.188,3.088,61.42852,2.268,51.6,59.56,33.69,35.58
"2015-12-28 15:10:00",215576,0.702,55.53,-3.43,64.45,24.14375,0,865.6375,0,1.708,3.183,173,2.202,3.087,54.27386,2.252,51.6,59.56,33.69,35.58
"2015-12-28 15:20:00",215577,0.838,169.5,-3.423,66.69,14.51455,0,865.7723,0,1.659,3.184,171,2.23,3.094,38.72535,2.683,51.6,59.56,33.69,35.58
"2015-12-28 15:30:00",215578,0.716,176.5,-3.563,66.86,9.114528,0,865.8945,0,1.579,3.185,171,2.236,3.101,25.94377,2.851,51.6,59.56,33.69,35.58
"2015-12-28 15:40:00",215579,0.609,161.5,-3.581,67.57,7.979074,0,865.892,0,1.794,3.183,171,2.249,3.109,23.1028,2.907,51.6,59.56,33.69,35.58
"2015-12-28 15:50:00",215580,0.542,136.6,-3.621,69.02,6.065323,0,865.9435,0,1.534,3.186,171,2.24,3.091,18.76477,3.1,51.55,59.56,33.68,35.58
"2015-12-28 16:00:00",215581,0.176,70.86,-3.652,67.96,8.31457,0,865.9622,0,1.521,3.186,172,2.241,3.106,22.06427,2.66,51.55,59.56,33.68,35.58
"2015-12-28 16:10:00",215582,0,0,-3.536,68.78,5.193477,0,865.9844,0,1.487,3.185,171,2.231,3.13,13.84739,2.674,51.55,59.56,33.68,35.58
"2015-12-28 16:20:00",215583,0.027,57.32,-3.431,69.21,3.683887,0,865.9769,0,1.511,3.185,171,2.238,3.138,11.18282,3.049,51.55,59.56,33.68,35.58
"2015-12-28 16:30:00",215584,0,0,-3.44,69.85,2.020848,0,866.0204,0,1.51,3.185,172,2.249,3.14,7.149489,3.808,51.6,59.56,33.69,35.58
"2015-12-28 16:40:00",215585,0.018,56.83,-3.454,70.27,0.3341879,0,866.1729,0,1.561,3.185,170,2.272,3.141,3.893185,6.891,51.55,59.56,33.68,35.58
"2015-12-28 16:50:00",215586,0.261,89.6,-3.598,70.42,0,0,866.2068,0,1.585,3.185,172,2.276,3.143,1.531498,0,51.55,59.5,33.68,35.56
"2015-12-28 17:00:00",215587,0.129,60.74,-3.624,70.34,0,0,866.2532,0,1.537,3.186,171,2.278,3.156,0.6406513,0,51.6,59.56,33.69,35.58
"2015-12-28 17:10:00",215588,0.117,120.6,-3.625,70.26,0,0,866.4554,0,1.611,3.185,172,2.276,3.174,0.4132012,0,51.55,59.5,33.68,35.56
"2015-12-28 17:20:00",215589,0.004,126,-3.609,71.12,0,0,866.4871,0,1.412,3.187,171,2.281,3.178,0.2691494,0,51.6,59.5,33.69,35.56
"2015-12-28 17:30:00",215590,0.051,27.06,-3.69,71.16,0,0,866.4933,0,1.513,3.187,170,2.265,3.133,0.2122868,0,51.55,59.5,33.68,35.56
"2015-12-28 17:40:00",215591,0.178,110.2,-3.855,73.23,0,0,866.4871,0,1.367,3.19,171,2.261,3.148,0.07202589,0,51.6,59.5,33.69,35.56
"2015-12-28 17:50:00",215592,0.122,25.26,-4.109,72.47,0,0,866.4933,0,1.568,3.189,172,2.244,3.164,0,0,51.55,59.5,33.68,35.56
"2015-12-28 18:00:00",215593,0.06,19.71,-4.276,73.25,0,0,866.506
"2015-12-28 18:00:00",215593,0.06,19.71,-4.276,73.25,0,0,866.506,0,1.421,3.191,171,2.233,3.142,0,0,51.55,59.5,33.68,35.56
"2015-12-28 18:10:00",215594,0.024,94.2,-4.514,75.44,0,0,866.7167,0,1.4,3.193,172,2.237,3.14,0.07202589,0,51.55,59.5,33.68,35.56
"2015-12-28 18:20:00",215595,0,0,-4.76,79.1,0,0,866.525,0,1.355,3.195,172,2.25,3.14,0,0,51.55,59.5,33.68,35.56
"2015-12-28 18:30:00",215596,0,0,-5.06,80.5,0,0,866.4744,0,1.41,3.197,170,2.234,3.138,0,0,51.55,59.5,33.68,35.56
"2015-12-28 18:40:00",215597,0.103,136.9,-5.358,82,0,0,866.4786,0,1.529,3.197,176,2.197,3.147,0,0,51.55,59.5,33.68,35.56
"2015-12-28 18:50:00",215598,0.395,163.9,-5.314,81.3,0,0,866.4618,0,1.264,3.198,172,2.217,3.195,0.1326953,0,51.55,59.5,33.68,35.56
"2015-12-28 19:00:00",215599,0.201,91.9,-5.278,80.4,0,0,866.4764,0,1.6,3.194,171,2.24,3.198,0.1023722,0,51.55,59.5,33.68,35.56
"2015-12-28 19:10:00",215600,0.201,104.3,-5.003,79.79,0,0,866.4949,0,1.397,3.196,172,2.266,3.216,0.4550039,0,51.55,59.5,33.68,35.56
"2015-12-28 19:20:00",215601,0.073,77.81,-4.96,79.08,0,0,866.4592,0,1.169,3.198,170,2.278,3.179,0.0720437,0,51.55,59.5,33.68,35.56
"2015-12-28 19:30:00",215602,0.044,161.7,-5.319,80.9,0,0,866.4514,0,1.366,3.198,171,2.306,3.175,0,0,51.49,59.5,33.66,35.56
"2015-12-28 19:40:00",215603,0.071,173.4,-5.312,81.6,0,0,866.3614,0,1.441,3.198,172,2.317,3.183,0.1403066,0,51.49,59.5,33.66,35.56
"2015-12-28 19:50:00",215604,0.047,191.6,-5.272,81.8,0,0,866.4626,0,1.358,3.196,170,2.32,3.191,0.2844089,0,51.55,59.5,33.68,35.56
"2015-12-28 20:00:00",215605,0.046,210.9,-5.125,81.3,0,0,866.5575,0,1.434,3.196,171,2.321,3.189,0.7622173,0,51.55,59.5,33.68,35.56
"2015-12-28 20:10:00",215606,0.03,99.2,-5.281,82.4,0,0,866.332,0,1.459,3.196,172,2.321,3.188,0.8266842,0,51.49,59.5,33.66,35.56
"2015-12-28 20:20:00",215607,0.024,53.49,-5.057,82.9,0,0,866.3679,0,1.258,3.197,193,2.321,3.186,1.095926,0,51.55,59.5,33.68,35.56
"2015-12-28 20:30:00",215608,0.055,66.55,-5.041,85.3,0,0,866.4479,0,0.961,3.2,181,2.321,3.186,0.8721899,0,51.55,59.5,33.68,35.56
"2015-12-28 20:40:00",215609,0.068,67.14,-4.919,87.7,0,0,866.4542,0,0.783,3.2,189,2.319,3.196,0.7887631,0,51.55,59.5,33.68,35.56
"2015-12-28 20:50:00",215610,0.116,40.11,-4.712,87.2,0,0,866.3994,0,0.83,3.199,191,2.293,3.186,0.6977519,0,51.55,59.5,33.68,35.56
"2015-12-28 21:00:00",215611,0.047,67.69,-4.529,87.1,0,0,866.3762,0,0.754,3.199,192,2.286,3.188,0.6825835,0,51.49,59.5,33.66,35.56
"2015-12-28 21:10:00",215612,0.057,120.9,-4.489,88.2,0,0,866.3699,0,0.728,3.199,197,2.288,3.211,0.6749992,0,51.55,59.5,33.68,35.56
"2015-12-28 21:20:00",215613,0.235,111.9,-4.496,88.5,0,0,866.3214,0,0.728,3.199,197,2.282,3.221,0.5726117,0,51.49,59.5,33.66,35.56
"2015-12-28 21:30:00",215614,0.204,348.7,-4.571,88.5,0,0,866.3256,0,0.729,3.199,196,2.287,3.241,0.2313199,0,51.49,59.5,33.66,35.56
"2015-12-28 21:40:00",215615,0.127,131,-4.555,88.5,0,0,866.3256,0,0.83,3.199,196,2.281,3.212,0.261657,0,51.49,59.5,33.66,35.56
"2015-12-28 21:50:00",215616,0.175,149.7,-4.619,88.4,0,0,866.2708,0,0.78,3.199,196,2.28,3.222,0.2275278,0,51.49,59.44,33.66,35.55
"2015-12-28 22:00:00",215617,0.392,160.9,-4.583,88.3,0,0,866.3256,0,0.757,3.2,195,2.281,3.221,0.2275278,0,51.55,59.44,33.68,35.55
"2015-12-28 22:10:00",215618,0.34,172.9,-4.668,88.2,0.02359781,0,866.2097,0,0.709,3.201,196,2.293,3.229,0.09480325,0,51.49,59.44,33.66,35.55
"2015-12-28 22:20:00",215619,0.278,162.9,-4.819,88.8,0.1061902,0,866.3256,0,0.785,3.201,196,2.318,3.247,0,0,51.49,59.44,33.66,35.55
"2015-12-28 22:30:00",215620,0.241,176.4,-4.92,89.1,0,0,866.2856,0,0.59,3.204,197,2.321,3.214,0,0,51.55,59.5,33.68,35.56
"2015-12-28 22:40:00",215621,0.086,145.7,-5.33,90.8,0,0,866.1149,0,0.622,3.206,198,2.321,3.191,0,0,51.49,59.44,33.66,35.55
"2015-12-28 22:50:00",215622,0.162,156.9,-5.434,92.3,0,0,866.2287,0,0.794,3.204,199,2.321,3.186,0.1099718,0,51.49,59.44,33.66,35.55
"2015-12-28 23:00:00",215623,0.224,356.9,-5.214,91.7,0,0,866.254,0,0.839,3.202,192,2.321,3.186,0.5612352,0,51.49,59.44,33.66,35.55
"2015-12-28 23:10:00",215624,0.223,33.61,-5.252,91.3,0,0,866.0748,0,0.842,3.203,182,2.321,3.186,0.3071626,0,51.49,59.44,33.66,35.55
"2015-12-28 23:20:00",215625,0.119,87.4,-5.257,92,0,0,866.0727,0,0.964,3.201,196,2.321,3.186,0.6636228,0,51.55,59.44,33.68,35.55
"2015-12-28 23:30:00",215626,0.13,150.3,-5.125,92.5,0,0,866.0938,0,0.961,3.2,192,2.321,3.186,0.5384825,0,51.49,59.44,33.66,35.55
"2015-12-28 23:40:00",215627,0.126,149.9,-5.101,91.9,0,0,866.1486,0,1.235,3.198,185,2.318,3.186,0.3033704,0,51.49,59.44,33.66,35.55
"2015-12-28 23:50:00",215628,0.026,301.8,-5.08,91.5,0,0,866.3235,0,1.335,3.197,190,2.314,3.186,0.204775,0,51.49,59.44,33.66,35.55
